﻿測定場所 (Monitoring sites),日付 (Measurement date),時間 (Measurement time),線量率 最大値 (max) μGy/h,線量率 最小値 (min) μGy/h,線量率 平均値 (average) μGy/h,
大田 (Ota),2016-03-06,23:01～24:00,0.0417,0.0356,0.0387,
大田 (Ota),2016-03-06,22:01～23:00,0.0481,0.0379,0.0425,
大田 (Ota),2016-03-06,21:01～22:00,0.0512,0.0437,0.0465,
大田 (Ota),2016-03-06,20:01～21:00,0.0458,0.0369,0.0417,
大田 (Ota),2016-03-06,19:01～20:00,0.0417,0.0361,0.0390,
大田 (Ota),2016-03-06,18:01～19:00,0.0457,0.0376,0.0411,
大田 (Ota),2016-03-06,17:01～18:00,0.0419,0.0355,0.0384,
大田 (Ota),2016-03-06,16:01～17:00,0.0410,0.0354,0.0382,
大田 (Ota),2016-03-06,15:01～16:00,0.0414,0.0360,0.0382,
大田 (Ota),2016-03-06,14:01～15:00,0.0409,0.0362,0.0380,
大田 (Ota),2016-03-06,13:01～14:00,0.0440,0.0357,0.0382,
大田 (Ota),2016-03-06,12:01～13:00,0.0432,0.0359,0.0389,
大田 (Ota),2016-03-06,11:01～12:00,0.0432,0.0365,0.0392,
大田 (Ota),2016-03-06,10:01～11:00,0.0411,0.0357,0.0381,
大田 (Ota),2016-03-06,09:01～10:00,0.0412,0.0354,0.0377,
大田 (Ota),2016-03-06,08:01～09:00,0.0428,0.0357,0.0380,
大田 (Ota),2016-03-06,07:01～08:00,0.0412,0.0363,0.0380,
大田 (Ota),2016-03-06,06:01～07:00,0.0409,0.0352,0.0376,
大田 (Ota),2016-03-06,05:01～06:00,0.0406,0.0356,0.0377,
大田 (Ota),2016-03-06,04:01～05:00,0.0409,0.0360,0.0378,
大田 (Ota),2016-03-06,03:01～04:00,0.0407,0.0356,0.0378,
大田 (Ota),2016-03-06,02:01～03:00,0.0407,0.0357,0.0378,
大田 (Ota),2016-03-06,01:01～02:00,0.0405,0.0353,0.0376,
大田 (Ota),2016-03-06,00:01～01:00,0.0409,0.0361,0.0378,
大田 (Ota),2016-03-05,23:01～24:00,0.0405,0.0354,0.0379,
大田 (Ota),2016-03-05,22:01～23:00,0.0409,0.0360,0.0378,
大田 (Ota),2016-03-05,21:01～22:00,0.0410,0.0353,0.0374,
大田 (Ota),2016-03-05,20:01～21:00,0.0404,0.0352,0.0372,
大田 (Ota),2016-03-05,19:01～20:00,0.0401,0.0355,0.0377,
大田 (Ota),2016-03-05,18:01～19:00,0.0409,0.0356,0.0377,
大田 (Ota),2016-03-05,17:01～18:00,0.0416,0.0355,0.0374,
大田 (Ota),2016-03-05,16:01～17:00,0.0411,0.0355,0.0373,
大田 (Ota),2016-03-05,15:01～16:00,0.0410,0.0355,0.0377,
大田 (Ota),2016-03-05,14:01～15:00,0.0412,0.0355,0.0374,
大田 (Ota),2016-03-05,13:01～14:00,0.0416,0.0358,0.0379,
大田 (Ota),2016-03-05,12:01～13:00,0.0415,0.0360,0.0381,
大田 (Ota),2016-03-05,11:01～12:00,0.0413,0.0358,0.0383,
大田 (Ota),2016-03-05,10:01～11:00,0.0424,0.0361,0.0380,
大田 (Ota),2016-03-05,09:01～10:00,0.0420,0.0355,0.0382,
大田 (Ota),2016-03-05,08:01～09:00,0.0409,0.0361,0.0383,
大田 (Ota),2016-03-05,07:01～08:00,0.0424,0.0358,0.0379,
大田 (Ota),2016-03-05,06:01～07:00,0.0414,0.0359,0.0377,
大田 (Ota),2016-03-05,05:01～06:00,0.0403,0.0356,0.0376,
大田 (Ota),2016-03-05,04:01～05:00,0.0401,0.0356,0.0377,
大田 (Ota),2016-03-05,03:01～04:00,0.0410,0.0358,0.0380,
大田 (Ota),2016-03-05,02:01～03:00,0.0404,0.0356,0.0382,
大田 (Ota),2016-03-05,01:01～02:00,0.0404,0.0358,0.0375,
大田 (Ota),2016-03-05,00:01～01:00,0.0428,0.0358,0.0380,
大田 (Ota),2016-03-04,23:01～24:00,0.0415,0.0357,0.0380,
大田 (Ota),2016-03-04,22:01～23:00,0.0412,0.0353,0.0379,
大田 (Ota),2016-03-04,21:01～22:00,0.0411,0.0358,0.0377,
大田 (Ota),2016-03-04,20:01～21:00,0.0412,0.0354,0.0374,
大田 (Ota),2016-03-04,19:01～20:00,0.0422,0.0353,0.0374,
大田 (Ota),2016-03-04,18:01～19:00,0.0407,0.0365,0.0377,
大田 (Ota),2016-03-04,17:01～18:00,0.0415,0.0351,0.0378,
大田 (Ota),2016-03-04,16:01～17:00,0.0407,0.0359,0.0376,
大田 (Ota),2016-03-04,15:01～16:00,0.0413,0.0354,0.0380,
大田 (Ota),2016-03-04,14:01～15:00,0.0409,0.0357,0.0380,
大田 (Ota),2016-03-04,13:01～14:00,0.0432,0.0355,0.0380,
大田 (Ota),2016-03-04,12:01～13:00,0.0408,0.0354,0.0377,
大田 (Ota),2016-03-04,11:01～12:00,0.0412,0.0357,0.0381,
大田 (Ota),2016-03-04,10:01～11:00,0.0408,0.0352,0.0382,
大田 (Ota),2016-03-04,09:01～10:00,0.0421,0.0356,0.0383,
大田 (Ota),2016-03-04,08:01～09:00,0.0413,0.0365,0.0381,
大田 (Ota),2016-03-04,07:01～08:00,0.0408,0.0355,0.0377,
大田 (Ota),2016-03-04,06:01～07:00,0.0427,0.0352,0.0376,
大田 (Ota),2016-03-04,05:01～06:00,0.0421,0.0358,0.0377,
大田 (Ota),2016-03-04,04:01～05:00,0.0413,0.0354,0.0375,
大田 (Ota),2016-03-04,03:01～04:00,0.0404,0.0354,0.0377,
大田 (Ota),2016-03-04,02:01～03:00,0.0406,0.0354,0.0378,
大田 (Ota),2016-03-04,01:01～02:00,0.0413,0.0362,0.0376,
大田 (Ota),2016-03-04,00:01～01:00,0.0414,0.0353,0.0377,
大田 (Ota),2016-03-03,23:01～24:00,0.0410,0.0355,0.0376,
大田 (Ota),2016-03-03,22:01～23:00,0.0409,0.0351,0.0378,
大田 (Ota),2016-03-03,21:01～22:00,0.0416,0.0360,0.0378,
大田 (Ota),2016-03-03,20:01～21:00,0.0399,0.0355,0.0375,
大田 (Ota),2016-03-03,19:01～20:00,0.0428,0.0353,0.0378,
大田 (Ota),2016-03-03,18:01～19:00,0.0417,0.0358,0.0377,
大田 (Ota),2016-03-03,17:01～18:00,0.0405,0.0359,0.0379,
大田 (Ota),2016-03-03,16:01～17:00,0.0421,0.0351,0.0380,
大田 (Ota),2016-03-03,15:01～16:00,0.0420,0.0359,0.0384,
大田 (Ota),2016-03-03,14:01～15:00,0.0428,0.0357,0.0381,
大田 (Ota),2016-03-03,13:01～14:00,0.0412,0.0364,0.0386,
大田 (Ota),2016-03-03,12:01～13:00,0.0418,0.0358,0.0384,
大田 (Ota),2016-03-03,11:01～12:00,0.0406,0.0359,0.0384,
大田 (Ota),2016-03-03,10:01～11:00,0.0417,0.0361,0.0383,
大田 (Ota),2016-03-03,09:01～10:00,0.0425,0.0353,0.0381,
大田 (Ota),2016-03-03,08:01～09:00,0.0406,0.0362,0.0381,
大田 (Ota),2016-03-03,07:01～08:00,0.0411,0.0355,0.0379,
大田 (Ota),2016-03-03,06:01～07:00,0.0413,0.0357,0.0379,
大田 (Ota),2016-03-03,05:01～06:00,0.0417,0.0347,0.0380,
大田 (Ota),2016-03-03,04:01～05:00,0.0421,0.0360,0.0379,
大田 (Ota),2016-03-03,03:01～04:00,0.0400,0.0360,0.0377,
大田 (Ota),2016-03-03,02:01～03:00,0.0414,0.0358,0.0378,
大田 (Ota),2016-03-03,01:01～02:00,0.0401,0.0346,0.0374,
大田 (Ota),2016-03-03,00:01～01:00,0.0403,0.0358,0.0378,
大田 (Ota),2016-03-02,23:01～24:00,0.0416,0.0355,0.0377,
大田 (Ota),2016-03-02,22:01～23:00,0.0411,0.0348,0.0372,
大田 (Ota),2016-03-02,21:01～22:00,0.0414,0.0348,0.0376,
大田 (Ota),2016-03-02,20:01～21:00,0.0415,0.0350,0.0374,
大田 (Ota),2016-03-02,19:01～20:00,0.0417,0.0347,0.0372,
大田 (Ota),2016-03-02,18:01～19:00,0.0403,0.0345,0.0371,
大田 (Ota),2016-03-02,17:01～18:00,0.0405,0.0353,0.0372,
大田 (Ota),2016-03-02,16:01～17:00,0.0427,0.0352,0.0372,
大田 (Ota),2016-03-02,15:01～16:00,0.0405,0.0356,0.0372,
大田 (Ota),2016-03-02,14:01～15:00,0.0400,0.0351,0.0372,
大田 (Ota),2016-03-02,13:01～14:00,0.0414,0.0351,0.0378,
大田 (Ota),2016-03-02,12:01～13:00,0.0405,0.0343,0.0378,
大田 (Ota),2016-03-02,11:01～12:00,0.0412,0.0352,0.0379,
大田 (Ota),2016-03-02,10:01～11:00,0.0412,0.0355,0.0377,
大田 (Ota),2016-03-02,09:01～10:00,0.0403,0.0354,0.0378,
大田 (Ota),2016-03-02,08:01～09:00,0.0410,0.0360,0.0377,
大田 (Ota),2016-03-02,07:01～08:00,0.0412,0.0355,0.0375,
大田 (Ota),2016-03-02,06:01～07:00,0.0408,0.0345,0.0372,
大田 (Ota),2016-03-02,05:01～06:00,0.0410,0.0353,0.0376,
大田 (Ota),2016-03-02,04:01～05:00,0.0399,0.0352,0.0374,
大田 (Ota),2016-03-02,03:01～04:00,0.0395,0.0353,0.0370,
大田 (Ota),2016-03-02,02:01～03:00,0.0401,0.0353,0.0374,
大田 (Ota),2016-03-02,01:01～02:00,0.0403,0.0352,0.0372,
大田 (Ota),2016-03-02,00:01～01:00,0.0401,0.0358,0.0372,
大田 (Ota),2016-03-01,23:01～24:00,0.0405,0.0345,0.0372,
大田 (Ota),2016-03-01,22:01～23:00,0.0415,0.0356,0.0373,
大田 (Ota),2016-03-01,21:01～22:00,0.0404,0.0353,0.0370,
大田 (Ota),2016-03-01,20:01～21:00,0.0399,0.0352,0.0370,
大田 (Ota),2016-03-01,19:01～20:00,0.0405,0.0349,0.0366,
大田 (Ota),2016-03-01,18:01～19:00,0.0396,0.0344,0.0371,
大田 (Ota),2016-03-01,17:01～18:00,0.0401,0.0358,0.0372,
大田 (Ota),2016-03-01,16:01～17:00,0.0396,0.0348,0.0370,
大田 (Ota),2016-03-01,15:01～16:00,0.0402,0.0349,0.0371,
大田 (Ota),2016-03-01,14:01～15:00,0.0410,0.0350,0.0373,
大田 (Ota),2016-03-01,13:01～14:00,0.0409,0.0349,0.0375,
大田 (Ota),2016-03-01,12:01～13:00,0.0409,0.0357,0.0377,
大田 (Ota),2016-03-01,11:01～12:00,0.0408,0.0350,0.0376,
大田 (Ota),2016-03-01,10:01～11:00,0.0401,0.0354,0.0372,
大田 (Ota),2016-03-01,09:01～10:00,0.0404,0.0350,0.0374,
大田 (Ota),2016-03-01,08:01～09:00,0.0414,0.0351,0.0373,
大田 (Ota),2016-03-01,07:01～08:00,0.0407,0.0358,0.0373,
大田 (Ota),2016-03-01,06:01～07:00,0.0399,0.0358,0.0373,
大田 (Ota),2016-03-01,05:01～06:00,0.0419,0.0354,0.0378,
大田 (Ota),2016-03-01,04:01～05:00,0.0415,0.0358,0.0378,
大田 (Ota),2016-03-01,03:01～04:00,0.0425,0.0357,0.0390,
大田 (Ota),2016-03-01,02:01～03:00,0.0463,0.0366,0.0416,
大田 (Ota),2016-03-01,01:01～02:00,0.0546,0.0426,0.0479,
大田 (Ota),2016-03-01,00:01～01:00,0.0582,0.0425,0.0512,
大田 (Ota),2016-02-29,23:01～24:00,0.0432,0.0355,0.0390,
大田 (Ota),2016-02-29,22:01～23:00,0.0402,0.0349,0.0375,
大田 (Ota),2016-02-29,21:01～22:00,0.0403,0.0356,0.0376,
大田 (Ota),2016-02-29,20:01～21:00,0.0405,0.0345,0.0373,
大田 (Ota),2016-02-29,19:01～20:00,0.0396,0.0354,0.0372,
大田 (Ota),2016-02-29,18:01～19:00,0.0405,0.0356,0.0373,
大田 (Ota),2016-02-29,17:01～18:00,0.0426,0.0357,0.0386,
大田 (Ota),2016-02-29,16:01～17:00,0.0490,0.0388,0.0431,
大田 (Ota),2016-02-29,15:01～16:00,0.0566,0.0454,0.0519,
大田 (Ota),2016-02-29,14:01～15:00,0.0562,0.0358,0.0441,
大田 (Ota),2016-02-29,13:01～14:00,0.0420,0.0355,0.0380,
大田 (Ota),2016-02-29,12:01～13:00,0.0420,0.0350,0.0378,
大田 (Ota),2016-02-29,11:01～12:00,0.0406,0.0355,0.0372,
大田 (Ota),2016-02-29,10:01～11:00,0.0418,0.0360,0.0378,
大田 (Ota),2016-02-29,09:01～10:00,0.0412,0.0357,0.0377,
大田 (Ota),2016-02-29,08:01～09:00,0.0410,0.0361,0.0385,
大田 (Ota),2016-02-29,07:01～08:00,0.0442,0.0367,0.0404,
大田 (Ota),2016-02-29,06:01～07:00,0.0448,0.0374,0.0410,
大田 (Ota),2016-02-29,05:01～06:00,0.0425,0.0359,0.0387,
大田 (Ota),2016-02-29,04:01～05:00,0.0401,0.0351,0.0373,
大田 (Ota),2016-02-29,03:01～04:00,0.0401,0.0359,0.0375,
大田 (Ota),2016-02-29,02:01～03:00,0.0408,0.0353,0.0377,
大田 (Ota),2016-02-29,01:01～02:00,0.0439,0.0362,0.0389,
大田 (Ota),2016-02-29,00:01～01:00,0.0447,0.0382,0.0413,
